Location: Dos Palmas
(32.4468°N, 116.8732°W)
Time: 23:44:46
(UTC+00:00)

CZ-2C R/B - Pass Details

Date: 20 June 2021
Orbit: 500 x 566 km, 97.7° (Epoch: 01 August)

Event Time Altitude Azimuth Distance (km) Brightness Sun altitude
Rises 11:43:48 0° 8° (N) 2,679 7.1 -10.9°
Reaches altitude 10° 11:45:56 10° 6° (N) 1,773 6.0 -10.6°
Maximum altitude 11:49:44 67° 284° (WNW) 566 2.7 -9.9°
Drops below altitude 10° 11:53:25 10° 201° (SSW) 1,726 4.9 -9.3°
Enters shadow 11:53:49 - 200° (SSW) 1,894 5.1 -9.2°
